Weather in Sokologornoe

Ukraine / Kherson District     46°29′58″N   34°56′43″E
temp.,
°C
wind,
m/s
gust,
m/s
humid.,
%
clouds,
%
prec.,
mm/h
press.,
hPa
HPBL,
m
28 july, wed
wed2800:00+24s59660 0.0 1018292
03:00+22sse35690 0.0 101886
06:00+22sse46670 0.0 1017129
09:00+27s56470 0.0 1018664
12:00+30sse65390 0.0 10171045
15:00+31sse53360 0.0 10161199
18:00+28sse55415 0.0 1015532
21:00+24s36657 0.0 1015101
29 july, thu
thu2900:00+23ssw45675 0.0 101589
03:00+22w35664 0.0 101567
06:00+22w34661 0.0 101459
09:00+29sw33410 0.0 1014673
12:00+33ssw55290 0.0 10131651
15:00+34ssw55280 0.0 10122217
18:00+33ssw66333 0.0 10101321
21:00+26sw59531 0.2 1011189
30 july, fri
fri3000:00+23w33664 1.0 101144
03:00+22wsw33683 1.0 101030
06:00+22sw35705 0.0 101082
09:00+29ssw45455 0.0 1010658
12:00+32ssw56375 0.0 10101397
15:00+34s65375 0.3 10082036
18:00+22n81080100 8.4 1009200
21:00+23w2375100 10.7 101062
31 july, sat
sat3100:00+23nnw22788 0.0 101017
03:00+22nnw33790 0.0 101037
06:00+22n34820 0.0 101075
09:00+27nne34580 0.0 1010554
12:00+31nne32430 0.0 10101763
15:00+33n323431 0.0 10092656
18:00+32sw12371 0.0 10091761
21:00+27sw125612 0.0 101038
1 august, sun
sun100:00+26wnw335728 0.0 101036
03:00+24nnw33637 0.0 101050
06:00+24nne22700 0.0 101023
09:00+30nnw12470 0.0 1010464
12:00+34nnw43312 0.0 10102661
15:00+35nne242632 0.0 10092826
18:00+32s5633100 0.0 1009463
21:00+29sw46410 0.0 1009110